sat.trackr.live / text

‹ back to catalog

STARLINK-30165

NORAD 57457 · 2023-107A

PAYLOAD ACTIVE UNKNOWN

§ Identity

Operator
Country
US
Launch date
2023-07-28
Launch site
AFETR
Launch vehicle
Mass (kg)
RCS (m²)

Purposes: comms

External: N2YO · Heavens-Above · Gunter

§ Orbital elements

Epoch: 2026-05-25T01:16:34.938624Z

Period
94.27 min
Inclination
43.0026°
Eccentricity
0.0001455
Mean motion
15.27569394 rev/d
Perigee alt
482.1 km
Apogee alt
484.1 km
Semi-major
6,861.2 km
B*
-6.1755e-5
RAAN
265.0426°
Arg perigee
259.8778°
Mean anomaly
100.1910°
Rev number
15,681

§ Raw data

STARLINK-301651 57457U 23107A   26145.05318216 -.00001961  00000+0 -61755-4 0  99912 57457  43.0026 265.0426 0001455 259.8778 100.1910 15.27569394156815

JSON: /api/v1/satellites/57457 · /tle

For live sub-satellite position, see the globe view (requires WebGL).

§ Visibility from observer

Set your observer location to see the next 7 days of passes ≥ 10°. The values pass through the URL so the page stays shareable.

No JS? Fill the form by hand. The geolocation button needs JavaScript.